| time (UTC) | temp C | wind direction | speed KPH | gust KPH | rain 1hr cm | rain 24hr cm | rain mn cm | humidity % | barometer mb |
| 20260510051527 | 16 | 273 | 0.0 | 9.7 | 0.00 | 0.00 | 0.00 | 90 | 1013.2 |
| 20260510050026 | 16 | 245 | 4.8 | 14.5 | 0.00 | 0.00 | 0.00 | 92 | 1013.2 |
| 20260510044526 | 16 | 277 | 4.8 | 11.3 | 0.00 | 0.00 | 0.00 | 90 | 1013.2 |
| 20260510043026 | 16 | 249 | 3.2 | 12.9 | 0.00 | 0.00 | 0.00 | 91 | 1013.1 |
| 20260510041527 | 16 | 259 | 0.0 | 12.9 | 0.00 | 0.00 | 0.00 | 91 | 1013.0 |
| 20260510040024 | 16 | 248 | 3.2 | 12.9 | 0.00 | 0.00 | 0.00 | 90 | 1012.8 |
| 20260510034524 | 16 | 225 | 6.4 | 16.1 | 0.00 | 0.00 | 0.00 | 90 | 1012.7 |
| 20260510033027 | 16 | 233 | 6.4 | 16.1 | 0.00 | 0.00 | 0.00 | 90 | 1012.4 |
| 20260510031525 | 16 | 266 | 11.3 | 17.7 | 0.00 | 0.00 | 0.00 | 89 | 1012.2 |
| 20260510030022 | 16 | 250 | 6.4 | 19.3 | 0.00 | 0.00 | 0.00 | 89 | 1012.1 |
| 20260510024522 | 17 | 242 | 6.4 | 14.5 | 0.00 | 0.00 | 0.00 | 88 | 1011.9 |
| 20260510023021 | 17 | 221 | 6.4 | 17.7 | 0.00 | 0.00 | 0.00 | 87 | 1011.9 |
| 20260510021546 | 17 | 286 | 6.4 | 16.1 | 0.00 | 0.00 | 0.00 | 87 | 1011.7 |
| 20260510020019 | 17 | 265 | 8.0 | 17.7 | 0.00 | 0.00 | 0.00 | 86 | 1011.7 |
| 20260510014531 | 18 | 213 | 6.4 | 12.9 | 0.00 | 0.00 | 0.00 | 85 | 1011.5 |
| 20260510013018 | 18 | 229 | 6.4 | 14.5 | 0.00 | 0.00 | 0.00 | 83 | 1011.5 |
| 20260510011518 | 19 | 233 | 4.8 | 19.3 | 0.00 | 0.00 | 0.00 | 81 | 1011.4 |
| 20260510010024 | 20 | 232 | 8.0 | 20.9 | 0.00 | 0.00 | 0.00 | 81 | 1011.3 |
| 20260510004514 | 20 | 273 | 9.7 | 24.1 | 0.00 | 0.00 | 0.00 | 80 | 1011.3 |
| 20260510003013 | 20 | 219 | 8.0 | 17.7 | 0.00 | 0.00 | 0.00 | 79 | 1011.4 |
| 20260510001512 | 21 | 240 | 8.0 | 17.7 | 0.00 | 0.00 | 0.00 | 78 | 1011.3 |
| 20260510000011 | 21 | 244 | 6.4 | 19.3 | 0.00 | 0.00 | 0.00 | 78 | 1011.4 |
| 20260509234511 | 21 | 198 | 9.7 | 24.1 | 0.00 | 0.00 | 0.00 | 78 | 1011.4 |
| 20260509233011 | 21 | 263 | 6.4 | 16.1 | 0.00 | 0.00 | 0.00 | 77 | 1011.6 |
| 20260509231510 | 21 | 290 | 6.4 | 12.9 | 0.00 | 0.00 | 0.00 | 77 | 1011.5 |
| 20260509230021 | 21 | 214 | 8.0 | 16.1 | 0.00 | 0.00 | 0.00 | 77 | 1011.5 |
| 20260509224507 | 21 | 271 | 8.0 | 20.9 | 0.00 | 0.00 | 0.00 | 77 | 1011.6 |
| 20260509223005 | 21 | 263 | 11.3 | 20.9 | 0.00 | 0.00 | 0.00 | 76 | 1011.9 |
| 20260509221503 | 21 | 267 | 12.9 | 24.1 | 0.00 | 0.00 | 0.00 | 75 | 1012.0 |
| 20260509220002 | 21 | 246 | 8.0 | 22.5 | 0.00 | 0.00 | 0.00 | 76 | 1012.2 |
| 20260509214600 | 21 | 231 | 3.2 | 22.5 | 0.00 | 0.00 | 0.00 | 76 | 1012.3 |
| 20260509213114 | 21 | 225 | 8.0 | 20.9 | 0.00 | 0.00 | 0.00 | 75 | 1012.4 |
| 20260509211603 | 22 | 193 | 3.2 | 17.7 | 0.00 | 0.00 | 0.00 | 75 | 1012.5 |
| 20260509210055 | 21 | 200 | 6.4 | 16.1 | 0.00 | 0.00 | 0.00 | 75 | 1012.6 |
| 20260509204554 | 21 | 197 | 8.0 | 16.1 | 0.00 | 0.00 | 0.00 | 75 | 1012.7 |
| 20260509203051 | 21 | 230 | 6.4 | 14.5 | 0.00 | 0.00 | 0.00 | 76 | 1012.8 |
| 20260509201553 | 21 | 223 | 8.0 | 16.1 | 0.00 | 0.00 | 0.00 | 76 | 1013.0 |
| 20260509200054 | 21 | 225 | 8.0 | 16.1 | 0.00 | 0.00 | 0.00 | 76 | 1013.1 |
| 20260509194557 | 21 | 227 | 6.4 | 17.7 | 0.00 | 0.00 | 0.00 | 77 | 1013.2 |
| 20260509193050 | 21 | 263 | 9.7 | 20.9 | 0.00 | 0.00 | 0.00 | 76 | 1013.4 |
| 20260509191600 | 21 | 262 | 4.8 | 17.7 | 0.00 | 0.00 | 0.00 | 77 | 1013.5 |
| 20260509190048 | 21 | 218 | 6.4 | 14.5 | 0.00 | 0.00 | 0.00 | 77 | 1013.6 |
| 20260509184544 | 21 | 277 | 9.7 | 19.3 | 0.00 | 0.00 | 0.00 | 78 | 1013.7 |
| 20260509183041 | 21 | 224 | 4.8 | 12.9 | 0.00 | 0.00 | 0.00 | 79 | 1013.7 |
| 20260509181538 | 20 | 239 | 4.8 | 14.5 | 0.00 | 0.00 | 0.00 | 81 | 1013.7 |
| 20260509180048 | 19 | 232 | 6.4 | 12.9 | 0.00 | 0.00 | 0.00 | 82 | 1013.8 |
| 20260509174534 | 19 | 203 | 4.8 | 11.3 | 0.00 | 0.00 | 0.00 | 83 | 1013.8 |
| 20260509173036 | 18 | 196 | 3.2 | 12.9 | 0.00 | 0.00 | 0.00 | 84 | 1013.7 |
| 20260509171534 | 18 | 233 | 3.2 | 11.3 | 0.00 | 0.00 | 0.00 | 85 | 1013.7 |
| 20260509170026 | 18 | 159 | 4.8 | 11.3 | 0.00 | 0.00 | 0.00 | 85 | 1013.6 |
| 20260509164525 | 18 | 205 | 1.6 | 6.4 | 0.00 | 0.00 | 0.00 | 85 | 1013.5 |
| 20260509163024 | 18 | 144 | 0.0 | 0.0 | 0.00 | 0.00 | 0.00 | 85 | 1013.6 |
| 20260509161520 | 17 | 133 | 1.6 | 6.4 | 0.00 | 0.00 | 0.00 | 85 | 1013.6 |
| 20260509160019 | 17 | 111 | 0.0 | 8.0 | 0.00 | 0.00 | 0.00 | 86 | 1013.7 |
| 20260509154518 | 17 | 130 | 3.2 | 12.9 | 0.00 | 0.00 | 0.00 | 87 | 1013.6 |
| 20260509153029 | 17 | 150 | 0.0 | 0.0 | 0.00 | 0.00 | 0.00 | 87 | 1013.7 |
| 20260509151514 | 17 | 157 | 0.0 | 1.6 | 0.00 | 0.00 | 0.00 | 88 | 1013.7 |
| 20260509150018 | 17 | 199 | 0.0 | 0.0 | 0.00 | 0.00 | 0.00 | 89 | 1013.7 |
| 20260509144512 | 17 | 205 | 0.0 | 4.8 | 0.00 | 0.00 | 0.00 | 89 | 1013.7 |
| 20260509143011 | 16 | 26 | 0.0 | 1.6 | 0.00 | 0.00 | 0.00 | 90 | 1013.6 |
| 20260509141509 | 16 | 263 | 0.0 | 1.6 | 0.00 | 0.00 | 0.00 | 90 | 1013.5 |
| 20260509140008 | 16 | 268 | 0.0 | 0.0 | 0.00 | 0.00 | 0.00 | 90 | 1013.5 |
| 20260509134507 | 16 | 268 | 0.0 | 1.6 | 0.00 | 0.00 | 0.00 | 91 | 1013.5 |
| 20260509133007 | 16 | 264 | 3.2 | 6.4 | 0.00 | 0.00 | 0.00 | 91 | 1013.3 |
| 20260509131506 | 16 | 260 | 0.0 | 6.4 | 0.00 | 0.00 | 0.00 | 91 | 1013.1 |
| 20260509130006 | 16 | 250 | 0.0 | 0.0 | 0.00 | 0.00 | 0.00 | 91 | 1013.0 |
| 20260509124505 | 16 | 250 | 0.0 | 0.0 | 0.00 | 0.00 | 0.00 | 91 | 1012.9 |
| 20260509123004 | 16 | 250 | 0.0 | 0.0 | 0.00 | 0.00 | 0.00 | 91 | 1013.0 |
| 20260509121503 | 16 | 250 | 0.0 | 0.0 | 0.00 | 0.00 | 0.00 | 91 | 1013.0 |
| 20260509120002 | 16 | 250 | 0.0 | 0.0 | 0.00 | 0.00 | 0.00 | 91 | 1013.2 |
| 20260509114502 | 16 | 250 | 0.0 | 0.0 | 0.00 | 0.00 | 0.00 | 91 | 1013.0 |
| 20260509113002 | 16 | 250 | 0.0 | 0.0 | 0.00 | 0.00 | 0.00 | 91 | 1013.0 |
| 20260509111501 | 16 | 250 | 0.0 | 0.0 | 0.00 | 0.00 | 0.00 | 91 | 1013.1 |
| 20260509110059 | 16 | 250 | 0.0 | 6.4 | 0.00 | 0.00 | 0.00 | 91 | 1013.1 |
| 20260509104604 | 16 | 249 | 1.6 | 4.8 | 0.00 | 0.00 | 0.00 | 91 | 1013.1 |
| 20260509103107 | 16 | 249 | 3.2 | 6.4 | 0.00 | 0.00 | 0.00 | 91 | 1013.2 |
| 20260509101618 | 16 | 242 | 3.2 | 8.0 | 0.00 | 0.00 | 0.00 | 91 | 1013.2 |
| 20260509100059 | 16 | 198 | 0.0 | 0.0 | 0.00 | 0.00 | 0.00 | 91 | 1013.3 |
| 20260509094600 | 16 | 196 | 0.0 | 6.4 | 0.00 | 0.00 | 0.00 | 91 | 1013.4 |
| 20260509093053 | 16 | 196 | 0.0 | 3.2 | 0.00 | 0.00 | 0.00 | 91 | 1013.6 |
| 20260509091555 | 16 | 196 | 1.6 | 4.8 | 0.00 | 0.00 | 0.00 | 91 | 1013.6 |
| 20260509090057 | 16 | 198 | 0.0 | 8.0 | 0.00 | 0.00 | 0.00 | 91 | 1013.6 |
| 20260509084559 | 16 | 196 | 0.0 | 4.8 | 0.00 | 0.00 | 0.00 | 91 | 1013.7 |
| 20260509083103 | 16 | 192 | 0.0 | 4.8 | 0.00 | 0.00 | 0.00 | 91 | 1013.9 |
| 20260509081547 | 16 | 199 | 0.0 | 6.4 | 0.00 | 0.00 | 0.00 | 91 | 1014.0 |
| 20260509080050 | 16 | 208 | 1.6 | 6.4 | 0.00 | 0.00 | 0.00 | 91 | 1014.1 |
| 20260509074606 | 16 | 190 | 0.0 | 8.0 | 0.00 | 0.00 | 0.00 | 91 | 1014.1 |
| 20260509073101 | 16 | 184 | 0.0 | 0.0 | 0.00 | 0.00 | 0.00 | 91 | 1014.2 |
| 20260509071549 | 16 | 131 | 0.0 | 4.8 | 0.00 | 0.00 | 0.00 | 90 | 1014.2 |
| 20260509070047 | 16 | 146 | 1.6 | 8.0 | 0.00 | 0.00 | 0.00 | 90 | 1014.2 |
| 20260509064541 | 16 | 182 | 0.0 | 8.0 | 0.00 | 0.00 | 0.00 | 90 | 1014.4 |
| 20260509063055 | 16 | 199 | 1.6 | 6.4 | 0.00 | 0.00 | 0.00 | 90 | 1014.6 |
| 20260509061540 | 16 | 165 | 4.8 | 9.7 | 0.00 | 0.00 | 0.00 | 90 | 1014.6 |
| 20260509060101 | 16 | 198 | 0.0 | 8.0 | 0.00 | 0.00 | 0.00 | 90 | 1014.6 |
| 20260509054539 | 16 | 238 | 1.6 | 6.4 | 0.00 | 0.00 | 0.00 | 90 | 1014.6 |
| 20260509053052 | 16 | 220 | 3.2 | 9.7 | 0.00 | 0.00 | 0.00 | 90 | 1014.5 |